Powrót do katalogu

THORAD DELTA 1 DEB

AktywnySSO
NORAD 42614·DEBRIS·🇺🇸 United States

Wystrzelony Nov 15, 1974 z Vandenberg Space Force Base

Loading…

Następne Przeloty (najbliższe 24 godziny)

TLE

ŚwieżeSource: Space-Track

Epoka: Sep 13, 2026, 04:38 UTC

1 42614U 74089GF  26256.19344670  .00000270  00000-0  18209-2 0  9991
2 42614 101.8981  57.3937 0036255 353.2109 179.9184 12.59958996547069

Śledź THORAD DELTA 1 DEB w czasie rzeczywistym z AllMySat

Download on the App Store